Regional Weather Roundup
Issued by NWS

Home | Current Version | Previous Version | Text Only | Print | Product List | Glossary On
Versions: 1 2 3 4 5 6 7 8 9 10 11 12 13 14 15 16 17 18 19 20 21 22 23 24 25 26 27 28 29 30 31 32 33 34 35 36 37 38 39 40 41 42 43 44 45 46 47 48 49 50
000
ASUS43 KTOP 042159
RWRKS

WEATHER ROUNDUP FOR KANSAS
NATIONAL WEATHER SERVICE GOODLAND KS
500 PM CDT TUE AUG 04 2015

NOTE:  "FAIR" INDICATES FEW OR NO CLOUDS BELOW 12,000 FEET WITH NO
SIGNIFICANT WEATHER AND/OR OBSTRUCTIONS TO VISIBILITY.

KSZ001>006-013>018-027>032-041>047-042300-
NORTHWEST KANSAS

CITY           SKY/WX    TMP DP  RH WIND       PRES   REMARKS
GOODLAND       MOSUNNY   84  60  44 NE18G30   29.98R
HAYS           MOSUNNY   88  63  42 SE17G24   29.90S
HILL CITY      CLOUDY    76  69  79 S17G23    29.96R THUNDER
RUSSELL        MOSUNNY   86  64  47 S16G25    29.90S
$$

KSZ061>065-074>080-084>089-042300-
SOUTHWEST KANSAS

CITY           SKY/WX    TMP DP  RH WIND       PRES   REMARKS
DODGE CITY     MOSUNNY   87  64  46 S15G28    29.91F
ELKHART          N/A     91  66  43 S13         N/A
GARDEN CITY    SUNNY     89  62  40 S17G26    29.90F
GREAT BEND     MOSUNNY   86  66  51 SE18G24   29.90S
LIBERAL        SUNNY     91  64  40 S10       29.91S
$$

KSZ066>073-081>083-090>101-042300-
SOUTHEAST KANSAS

CITY           SKY/WX    TMP DP  RH WIND       PRES   REMARKS
CHANUTE        CLOUDY    78  68  71 S6        29.95F
COFFEYVILLE    LGT RAIN  75  72  90 CALM      29.94F
HUTCHINSON     MOSUNNY   84  67  56 S16G23    29.92F
NEWTON         MOSUNNY   82  64  54 SE13G20   29.95F
PARSONS        CLOUDY    75  71  87 SE5       29.97F
WICHITA INTL   MOSUNNY   82  67  60 SE16      29.91F
WICHITA JABRA  SUNNY     83  67  58 S14G21    29.92F
$$

KSZ007>012-019>026-033>040-048>060-102>105-042300-
NORTHEAST KANSAS

CITY           SKY/WX    TMP DP  RH WIND       PRES   REMARKS
CONCORDIA      LGT RAIN  72  70  93 E10       29.94R
EMPORIA        CLOUDY    79  65  62 S14       29.95S
LAWRENCE       TSTM      72  70  93 N9        29.96R VSB 1/2
MANHATTAN      LGT RAIN  78  73  84 CALM      29.96R
OLATHE IND     TSTM      71  70  96 SE3       29.99R FOG
OLATHE EXE     TSTM      69  68  96 S14G22    29.99R VSB 1
SALINA         PTSUNNY   85  68  56 S12       29.92R
TOPEKA BILLARD CLOUDY    72  71  97 NW6       29.97R
TOPEKA FORBES  CLOUDY    78  70  76 W6        29.96R
$$


USA.gov is the U.S. government's official web portal to all federal, state and local government web resources and services.